CAPE
0 0 0 0 0 0 0 0 0 0 0 0 0 0 0 0 0 0 0 0 0 0 0 0 0 0 0 0 2 6 7 5 29 36 0 0 203 404 265 284 152 284 77 84 72
0 0 0 0 0 0 0 0 0 0 0 0 0 0 0 0 0 0 0 0 0 0 0 0 0 0 0 0 0 11 1 5 96 45 0 67 136 124 207 326 501 108 121 116 169
0 0 0 0 0 0 0 0 0 0 0 0 0 0 0 0 0 0 0 0 0 0 0 0 0 0 0 0 0 0 0 14 33 23 0 0 1 1 225 173 453 80 78 44 61
0 0 0 0 0 0 0 0 0 0 0 0 0 0 0 0 0 0 0 0 0 0 0 0 0 0 0 0 0 0 0 14 23 1 4 70 33 266 241 323 210 66 67 34 42
0 0 0 0 0 0 0 0 0 0 0 0 0 0 0 0 0 0 0 0 0 0 0 0 0 0 0 0 0 0 0 12 20 1 27 155 238 20 109 136 171 144 90 45 48
0 0 0 0 0 0 0 0 0 0 0 0 0 0 0 0 0 0 0 0 0 0 0 0 0 0 0 0 0 0 0 0 2 0 160 212 298 10 54 95 302 184 104 114 27
0 0 0 0 0 0 0 0 0 0 0 0 0 0 0 0 0 0 0 0 0 0 0 0 0 0 0 0 0 0 0 0 0 0 387 236 82 0 19 246 310 263 212 72 27
0 0 0 0 0 0 0 0 0 0 0 0 0 0 0 0 0 0 0 0 0 0 0 0 0 0 0 0 0 0 0 0 0 0 51 229 87 270 226 200 373 266 345 115 17
0 0 0 0 0 0 0 0 0 0 0 0 0 0 0 0 0 0 0 0 0 0 0 0 0 0 0 0 0 0 0 0 0 0 0 44 250 451 270 373 491 286 250 201 65
0 0 0 0 0 0 0 0 0 0 0 0 0 0 0 0 0 0 0 0 0 0 0 0 0 0 0 0 0 0 0 0 0 0 0 0 408 464 409 238 110 301 348 269 112
0 0 0 0 0 0 0 0 0 0 0 0 0 0 0 0 0 0 0 0 0 0 0 0 0 0 0 0 0 0 0 0 0 0 0 0 218 576 387 213 325 315 268 210 123
0 0 0 0 0 0 0 0 0 0 0 0 0 0 0 0 0 0 0 0 0 0 0 0 0 0 0 0 0 0 0 0 0 0 0 30 92 381 111 57 228 149 92 189 153
0 0 0 0 0 0 0 0 0 0 0 0 0 0 0 0 0 0 0 0 0 0 0 0 0 0 0 0 0 0 0 0 0 0 0 66 136 107 18 0 0 26 13 60 151
0 0 0 0 0 0 0 0 0 0 0 0 0 0 0 0 0 0 0 0 0 0 0 0 0 0 0 0 0 0 0 0 0 0 0 0 13 112 47 24 9 14 29 85 148
0 0 0 0 0 0 0 0 0 0 0 0 0 0 0 0 0 0 0 0 0 0 0 0 0 0 0 0 0 0 0 0 0 0 0 0 0 0 85 61 52 53 0 0 90
0 0 0 0 0 0 0 0 0 0 0 0 0 0 0 0 0 0 0 0 0 0 0 0 0 0 0 0 0 0 0 0 0 0 0 0 0 0 59 53 27 228 71 124 223
0 0 0 0 0 0 0 0 0 0 0 0 0 0 0 0 0 0 0 0 0 0 0 0 0 0 0 0 0 0 0 0 0 0 0 0 0 0 0 114 133 228 534 204 193
0 0 0 0 0 0 0 0 0 0 0 0 0 0 0 0 0 0 0 0 0 0 0 0 0 0 0 0 0 0 0 0 0 0 0 0 0 0 0 107 330 271 375 5 320
0 0 0 0 0 0 0 5 0 0 0 0 0 0 0 0 0 0 0 0 0 0 0 0 0 0 0 0 0 0 0 0 0 0 0 0 0 0 0 0 52 36 0 33 475
0 0 0 0 0 0 0 1 0 0 0 0 0 0 0 0 0 0 0 0 0 0 0 0 0 0 0 0 0 0 0 0 0 0 0 0 0 0 0 0 30 147 124 442 345
0 0 0 0 0 0 0 0 0 0 0 0 0 0 0 0 0 0 0 0 0 0 0 0 0 0 0 0 0 0 0 0 0 0 0 0 0 0 32 0 62 211 362 530 130
0 0 0 0 0 0 0 0 0 0 0 0 0 0 0 0 0 0 0 0 0 0 0 0 0 0 0 0 0 0 0 0 0 0 0 0 0 0 3 49 0 193 180 277 105
0 0 0 0 0 0 0 0 0 0 0 0 0 0 0 0 0 0 0 0 0 0 0 0 0 0 0 0 0 0 0 0 0 0 0 0 0 0 21 6 43 259 295 257 394
0 0 0 0 0 0 0 0 0 0 0 0 0 0 0 0 0 0 0 0 0 0 0 0 0 0 0 0 0 0 0 0 0 0 0 0 0 0 0 0 8 75 140 248 258
0 0 0 0 0 0 0 0 0 0 0 0 0 0 0 0 0 0 0 0 0 0 0 0 0 0 0 0 0 0 0 0 0 0 0 0 0 0 0 0 1 9 10 16 73
0 0 0 0 0 0 0 0 0 0 0 0 0 0 0 0 0 0 0 0 0 0 0 0 0 0 0 0 0 0 0 0 0 0 0 0 0 0 0 0 0 0 0 0 0
0 0 0 0 0 0 0 0 0 0 0 0 0 0 0 0 0 0 0 0 0 0 0 0 0 0 0 0 0 0 0 0 0 0 0 0 4 0 0 0 0 0 0 0 0
CIN
0 0 0 0 0 0 0 0 0 0 0 0 0 0 0 0 0 0 0 0 0 0 0 0 0 0 0 0 -12 -12 -1 -13 -20 -17 0 -18 -25 -77 -120 -34 -38 -42 -158 -133 -68
0 0 0 0 0 0 0 0 0 0 0 0 0 0 0 0 0 0 0 0 0 0 0 0 0 0 0 0 0 -5 -2 -16 -72 -78 0 -25 -49 -58 -63 -48 -5 -73 -82 -56 -30
0 0 0 0 0 0 0 0 0 0 0 0 0 0 0 0 0 0 0 0 0 0 0 0 0 0 0 0 0 0 0 -50 -99 -96 0 0 -105 -18 -46 -35 -19 -135 -143 -67 -36
0 0 0 0 0 0 0 0 0 0 0 0 0 0 0 0 0 0 0 0 0 0 0 0 0 0 0 0 0 0 0 -35 -133 -103 -76 -78 -24 -22 -76 -28 -57 -143 -164 -124 -53
0 0 0 0 0 0 0 0 0 0 0 0 0 0 0 0 0 0 0 0 0 0 0 0 0 0 0 0 0 0 0 -18 -112 -41 -52 -116 -40 -107 -93 -88 -58 -114 -170 -94 -76
0 0 0 0 0 0 0 0 0 0 0 0 0 0 0 0 0 0 0 0 0 0 0 0 0 0 0 0 0 0 0 0 -64 0 -73 -78 -41 -56 -131 -84 -49 -108 -131 -62 -69
0 0 0 0 0 0 0 0 0 0 0 0 0 0 0 0 0 0 0 0 0 0 0 0 0 0 0 0 0 0 0 0 0 0 -72 -141 -67 -8 -159 -79 -8 -33 -94 -71 -33
0 0 0 0 0 0 0 0 0 0 0 0 0 0 0 0 0 0 0 0 0 0 0 0 0 0 0 0 0 0 0 0 0 0 -11 -64 -35 -40 -109 -132 -25 -35 -5 -29 -15
0 0 0 0 0 0 0 0 0 0 0 0 0 0 0 0 0 0 0 0 0 0 0 0 0 0 0 0 0 0 0 0 0 0 0 -12 -47 -99 -101 -59 -10 -51 -4 -5 -20
0 0 0 0 0 0 0 0 0 0 0 0 0 0 0 0 0 0 0 0 0 0 0 0 0 0 0 0 0 0 0 0 0 0 0 0 -69 -152 -121 -117 -122 -10 -24 -5 -6
0 0 0 0 0 0 0 0 0 0 0 0 0 0 0 0 0 0 0 0 0 0 0 0 0 0 0 0 0 0 0 0 0 0 0 0 -76 -161 -143 -161 -99 -69 -33 -19 -6
0 0 0 0 0 0 0 0 0 0 0 0 0 0 0 0 0 0 0 0 0 0 0 0 0 0 0 0 0 0 0 0 0 0 0 -64 -67 -190 -228 -157 -147 -136 -78 -52 -21
0 0 0 0 0 0 0 0 0 0 0 0 0 0 0 0 0 0 0 0 0 0 0 0 0 0 0 0 0 0 0 0 0 0 0 -116 -194 -243 -300 0 0 -280 -99 -199 -36
0 0 0 0 0 0 0 0 0 0 0 0 0 0 0 0 0 0 0 0 0 0 0 0 0 0 0 0 0 0 0 0 0 0 0 0 -8 -178 -190 -251 -249 -283 -230 -170 -112
0 0 0 0 0 0 0 0 0 0 0 0 0 0 0 0 0 0 0 0 0 0 0 0 0 0 0 0 0 0 0 0 0 0 0 0 0 0 -224 -183 -235 -304 0 0 -175
0 0 0 0 0 0 0 0 0 0 0 0 0 0 0 0 0 0 0 0 0 0 0 0 0 0 0 0 0 0 0 0 0 0 0 0 0 0 -130 -120 -173 -261 -314 -318 -219
0 0 0 0 0 0 0 0 0 0 0 0 0 0 0 0 0 0 0 0 0 0 0 0 0 0 0 0 0 0 0 0 0 0 0 0 0 0 0 -109 -143 -167 -178 -153 -138
0 0 0 0 0 0 0 0 0 0 0 0 0 0 0 0 0 0 0 0 0 0 0 0 0 0 0 0 0 0 0 0 0 0 0 0 0 0 0 -26 -81 -156 -138 -196 -112
0 0 0 0 0 0 0 -8 0 0 0 0 0 0 0 0 0 0 0 0 0 0 0 0 0 0 0 0 0 0 0 0 0 0 0 0 0 0 0 0 -73 -134 0 -143 -102
0 0 0 0 0 0 0 -30 0 0 0 0 0 0 0 0 0 0 0 0 0 0 0 0 0 0 0 0 0 0 0 0 0 0 0 0 0 0 0 0 -76 -86 -94 -89 -80
0 0 0 0 0 0 -16 0 0 0 0 0 0 0 0 0 0 0 0 0 0 0 0 0 0 0 0 0 0 0 0 0 0 0 0 0 0 0 -95 0 -86 -85 -123 -102 -220
0 0 0 0 0 -12 0 0 0 0 0 0 0 0 0 0 0 0 0 0 0 0 0 0 0 0 0 0 0 0 0 -1 -34 0 0 0 0 0 -290 -248 -1 -85 -116 -198 -354
0 0 0 0 0 0 0 0 0 0 0 0 0 0 0 0 0 0 0 0 0 0 0 0 0 0 0 0 0 0 0 0 0 0 0 0 0 0 -228 -370 -473 -231 -282 -280 -271
0 0 0 0 0 0 0 0 0 0 0 0 0 0 0 0 0 0 0 0 0 0 0 0 0 0 0 0 0 0 0 0 0 0 0 0 0 0 -30 0 -409 -399 -216 -187 -309
0 0 0 0 0 0 0 0 0 0 0 0 0 0 0 0 0 0 0 0 0 0 0 0 0 0 0 0 0 0 0 0 0 0 0 0 0 0 0 0 -84 -301 -184 -39 -117
0 0 0 0 0 0 0 0 0 0 0 0 0 0 0 0 0 0 0 0 0 0 0 0 0 0 0 0 0 0 0 0 0 0 0 0 0 -1 0 0 0 0 0 0 0
0 0 0 0 0 0 0 0 0 0 0 0 0 0 0 0 0 0 0 0 0 0 0 0 0 0 0 0 0 0 0 0 0 0 0 0 -95 0 0 0 0 0 0 0 0
Wind_Speed
32 32 32 32 32 31 30 29 28 27 27 27 26 26 26 25 25 23 26 19 15 16 19 19 19 18 18 15 25 24 28 25 25 30 14 29 17 12 9 17 28 19 24 31 33
33 33 33 33 32 32 31 30 29 28 28 27 27 26 26 25 26 28 23 21 17 3 17 14 9 12 17 4 18 4 25 25 17 18 5 20 14 19 23 7 27 20 25 32 33
33 33 33 33 33 32 31 31 30 29 29 28 27 26 25 23 23 20 5 5 9 9 20 23 15 4 14 11 23 17 28 11 15 15 16 9 21 21 23 17 25 25 28 33 35
35 35 34 34 34 33 32 31 30 30 29 28 27 24 22 19 18 14 9 4 5 11 18 22 26 18 18 20 9 11 22 6 6 18 24 24 19 15 12 16 18 24 28 34 33
36 36 36 36 35 34 33 32 31 30 28 27 24 21 19 20 23 11 10 8 8 10 9 11 24 27 21 22 26 24 28 6 2 5 11 11 14 7 18 23 21 24 27 32 31
38 37 37 37 36 35 34 33 32 29 27 25 21 16 18 21 17 9 10 9 9 4 11 13 20 27 21 26 29 27 31 30 2 7 11 12 9 10 18 5 13 25 27 28 29
39 39 38 37 36 36 35 33 31 27 25 24 17 18 21 23 22 20 16 13 10 6 13 20 32 30 25 29 29 30 29 29 12 6 6 8 9 9 11 10 18 23 24 24 31
40 39 38 37 36 36 34 32 31 27 23 20 16 16 20 17 23 20 18 16 7 8 11 30 30 32 30 27 31 29 29 31 28 19 8 3 10 5 11 17 16 18 26 25 29
40 40 38 37 36 35 33 32 30 22 18 16 15 16 20 15 17 15 18 13 6 9 11 29 31 30 27 27 29 29 27 27 32 32 19 13 10 6 9 10 10 19 29 26 23
40 39 38 37 35 34 32 31 20 19 15 14 19 21 20 16 17 18 18 20 11 10 15 23 26 23 28 24 28 28 25 22 27 31 18 14 7 2 8 10 13 24 23 23 22
39 38 38 36 35 32 28 20 20 18 16 17 22 19 17 14 15 15 14 17 17 14 18 19 23 22 26 29 32 34 34 33 29 28 20 9 6 6 7 5 6 4 15 14 24
37 36 36 35 33 30 21 20 21 23 25 28 25 21 19 21 18 12 11 15 15 16 20 25 27 24 25 29 30 34 35 34 32 28 18 10 10 8 9 6 4 6 9 34 26
37 36 36 33 30 23 16 22 23 21 22 23 14 18 14 16 18 10 11 18 14 19 22 25 25 21 27 31 33 34 34 32 33 33 30 10 16 13 11 16 12 8 18 35 38
38 38 35 31 21 21 22 20 23 18 20 17 11 17 15 16 17 13 17 19 19 23 23 28 30 33 31 29 33 34 31 31 34 33 31 25 31 18 11 12 11 9 20 41 40
36 36 33 24 21 19 21 23 20 15 19 7 8 11 14 17 12 14 16 18 23 26 24 28 28 32 33 32 27 35 32 33 31 37 35 39 32 27 16 11 7 7 3 41 48
32 32 30 17 15 17 24 22 18 16 16 12 12 12 11 14 15 11 14 15 20 22 28 30 30 28 31 34 32 26 33 35 34 32 38 40 35 28 15 13 11 10 14 19 39
25 22 21 19 16 20 21 18 12 18 7 11 11 13 14 14 13 14 18 19 20 22 25 27 28 30 31 33 34 30 30 35 38 40 41 33 41 39 15 13 11 14 19 19 23
23 17 11 11 17 19 17 14 13 15 15 13 15 16 16 16 14 22 17 23 22 24 29 28 28 20 21 31 33 34 34 35 38 37 40 37 37 44 29 15 11 13 22 16 28
19 15 14 11 15 17 15 14 15 17 18 20 22 20 20 17 18 22 19 23 19 19 22 25 28 28 24 28 29 34 38 36 40 40 43 39 36 38 37 29 16 16 16 17 19
15 16 14 10 14 16 14 16 14 18 22 22 22 20 18 9 17 18 17 19 17 19 19 24 31 24 29 29 25 27 30 33 36 42 46 39 39 33 32 39 18 15 12 14 19
19 16 3 12 16 15 11 14 15 20 21 21 21 20 19 20 19 17 17 18 21 23 20 24 26 33 29 23 28 31 32 35 33 35 46 43 38 27 30 33 17 17 14 15 21
12 21 7 13 12 12 17 17 18 20 21 19 17 18 20 20 20 19 17 18 21 23 24 26 26 34 38 38 33 33 34 31 32 37 37 33 35 22 29 31 27 21 15 15 14
9 18 23 8 17 19 17 17 18 20 20 19 18 18 20 20 19 19 17 16 22 21 23 27 27 34 35 30 22 26 29 31 34 36 40 39 36 20 24 26 24 15 11 9 10
20 20 23 25 23 21 20 21 18 21 19 19 20 17 19 15 13 17 19 18 22 17 19 22 26 31 37 37 36 37 38 34 33 36 41 43 39 28 23 20 19 17 19 14 5
20 23 25 24 23 23 23 23 22 20 19 20 17 19 17 18 18 18 20 22 23 18 20 22 29 33 36 39 40 43 42 40 37 38 38 39 36 28 21 18 16 15 16 12 8
22 21 24 23 26 21 24 24 21 22 20 19 17 18 17 18 20 22 24 24 23 26 25 19 27 31 38 37 39 45 45 43 43 40 40 39 33 29 25 21 17 16 17 13 13
20 16 15 23 27 23 24 22 21 20 17 18 19 18 21 21 22 24 25 23 25 25 26 26 25 29 35 33 37 45 41 43 43 42 41 40 26 24 23 23 22 20 21 20 18
Wind_Direction
325 323 321 319 316 312 308 303 300 295 296 293 286 285 283 281 275 282 261 259 277 222 265 260 258 261 260 282 197 206 251 288 310 333 181 220 210 225 255 155 138 157 123 126 131
322 320 319 317 316 312 308 304 299 295 291 292 289 291 296 290 282 252 229 264 283 71 272 272 281 272 267 274 286 156 275 277 348 13 196 270 211 225 182 201 161 89 112 129 134
320 317 315 313 312 309 307 304 300 296 291 287 290 296 298 303 289 290 356 153 303 299 265 252 251 290 276 287 267 284 244 340 352 13 278 98 230 225 182 121 153 114 123 137 140
319 316 313 311 310 308 305 303 299 294 288 290 290 299 308 311 300 321 9 24 309 291 270 252 250 265 267 271 182 294 201 334 38 24 233 264 271 256 260 241 116 121 129 141 144
317 315 313 312 310 308 305 304 302 299 293 294 302 306 309 298 283 340 357 345 312 283 276 265 251 249 260 267 262 274 228 203 44 50 31 108 147 339 271 227 128 122 129 142 144
319 315 313 312 310 308 306 304 305 305 304 306 310 324 310 294 300 348 339 331 311 285 272 264 257 241 265 264 263 269 245 242 115 142 330 348 2 66 135 128 107 127 133 139 143
319 316 313 310 310 308 305 301 303 307 309 312 321 312 299 283 287 297 302 305 303 283 268 257 229 246 264 257 261 275 276 266 291 305 331 26 116 103 93 73 120 130 134 135 150
320 316 313 309 307 308 305 302 300 306 315 322 331 317 297 308 294 288 287 285 307 289 267 235 244 247 261 272 265 263 269 260 263 282 303 82 304 76 89 106 111 131 145 141 150
320 317 312 307 304 306 303 294 293 311 324 327 331 322 297 319 305 300 284 286 311 289 269 249 252 257 265 268 264 261 269 268 259 258 275 280 298 90 111 123 117 133 156 151 148
318 316 313 308 303 305 301 294 320 321 327 326 310 304 297 308 311 300 287 275 279 284 269 265 267 266 262 266 260 261 267 277 269 257 273 275 288 188 141 136 125 144 145 153 152
315 314 311 307 302 307 315 324 321 319 311 303 300 308 314 323 327 310 302 277 270 268 263 270 267 264 264 262 259 257 260 268 273 267 277 232 239 197 165 140 123 127 257 151 162
311 310 308 305 300 297 324 319 322 308 296 282 282 295 304 300 296 317 317 280 271 266 267 265 262 268 269 264 263 258 259 262 268 277 284 273 235 208 191 253 205 176 264 233 165
315 312 309 303 296 308 328 313 327 321 297 290 293 294 310 302 301 319 301 277 279 270 269 265 266 268 266 264 262 261 261 264 265 273 282 291 274 258 262 266 277 292 242 221 203
320 319 313 304 321 315 310 320 326 332 296 291 291 298 304 296 294 312 297 289 279 272 273 269 263 264 266 267 263 264 266 267 268 271 268 277 268 257 236 263 269 294 251 221 211
311 314 313 326 320 326 325 311 324 322 294 295 314 327 313 286 304 302 312 292 277 274 277 271 268 265 263 266 270 263 269 269 273 266 268 260 273 280 251 246 206 156 130 220 212
303 304 310 347 345 302 284 294 295 305 293 306 315 311 305 295 297 316 310 304 294 288 279 275 277 274 269 266 269 277 267 269 270 271 261 257 269 273 256 211 225 205 178 169 189
293 282 275 318 328 272 288 288 312 299 326 308 302 311 299 286 297 307 296 290 291 286 281 283 276 273 272 271 267 270 268 264 261 259 260 269 264 263 268 264 231 200 183 178 165
290 268 99 123 220 257 274 306 300 319 322 323 318 311 297 307 301 302 302 293 299 293 279 279 274 274 295 267 269 263 262 259 260 260 263 267 266 262 278 268 247 213 189 195 180
287 86 101 155 183 221 279 308 310 310 313 312 305 304 296 295 295 296 301 296 308 315 286 286 270 292 290 296 276 262 258 261 263 263 263 268 273 268 269 277 257 247 233 206 194
28 92 118 225 273 246 311 321 337 324 300 301 302 309 305 326 301 301 294 323 321 321 311 293 276 287 290 294 287 285 265 262 256 257 257 264 267 273 281 268 264 244 221 224 241
71 92 25 242 188 166 229 298 325 331 317 314 302 298 299 310 308 302 318 320 317 311 318 304 288 278 290 281 284 286 270 260 269 261 256 260 263 278 328 274 260 239 225 207 265
119 67 202 161 162 122 348 324 303 324 313 314 308 301 290 300 300 300 313 315 325 320 300 304 290 279 276 274 282 284 275 270 264 258 261 262 251 300 314 324 300 235 226 219 208
130 88 48 269 322 11 13 11 347 328 329 317 323 312 306 300 299 304 315 330 328 319 308 303 291 283 279 272 276 283 282 284 267 265 257 252 243 307 322 333 334 292 268 223 203
57 22 2 3 356 349 344 352 8 353 352 344 330 329 313 320 324 312 308 323 332 338 331 315 292 282 271 269 279 272 273 277 272 262 252 251 254 282 299 318 342 342 337 255 232
55 33 13 357 360 8 358 346 351 341 360 341 345 344 331 322 317 325 322 319 321 336 327 319 296 286 282 278 275 269 267 267 267 265 258 255 264 270 289 290 313 322 346 21 359
33 31 30 28 348 6 347 346 350 341 336 342 347 339 337 331 320 315 316 314 314 313 317 323 305 299 285 287 275 266 264 263 263 261 263 262 265 273 275 275 287 302 312 317 326
58 79 71 32 11 16 12 9 4 348 2 347 341 337 331 329 324 316 315 315 310 310 308 310 312 305 292 293 283 262 261 261 263 264 267 262 272 268 269 270 263 284 293 299 306